Volver al catálogo

STARLINK-4504

ActivoComunicacionesVLEO
NORAD 53555·PAYLOAD·🇺🇸 United States

Lanzado Aug 19, 2022 desde Cape Canaveral Space Force Station

Loading…

Próximos Pases (próximas 24 horas)

TLE

ActualizadoSource: CelesTrak SupGP

Época: Sep 15, 2026, 02:10 UTC

1 53555C 22101AE  26258.09076389  .00018157  00000+0  11386-2 0  2584
2 53555  53.1594 293.2371 0001209  87.2205 132.0905 15.08827786    18

Sigue STARLINK-4504 en tiempo real con AllMySat

Download on the App Store